Tracking 23610 objects as of 20-Sep-2021
HD Live streaming from Space Station
objects crossing your sky now

STARLINK-2421

Track STARLINK-2421 now!
10-day predictions
STARLINK-2421 is classified as:


NORAD ID: 48098
Int'l Code: 2021-027G
Perigee: 554.1 km
Apogee: 554.6 km
Inclination: 53.1 °
Period: 95.6 minutes
Semi major axis: 6925 km
RCS: Unknown
Launch date: April 7, 2021
Source: United States (US)
Launch site: AIR FORCE EASTERN TEST RANGE (AFETR)
aabbcc
Your satellite tracking list
Your tracking list is empty




NASA's NSSDC Master Catalog

Two Line Element Set (TLE):
1 48098U 21027G   21262.77053768  .00000790  00000-0  71883-4 0  9994
2 48098  53.0558 287.5830 0000430 104.2569 255.8468 15.06400834 26584
Source of the keplerian elements: AFSPC